Regional Weather Roundup
Issued by NWS

Home | Current Version | Previous Version | Graphics & Text | Print | Product List | Glossary On
Versions: 1 2 3 4 5 6 7 8 9 10 11 12 13 14 15 16 17 18 19 20 21 22 23 24 25 26 27 28 29 30 31 32 33 34 35 36 37 38 39 40 41 42 43 44 45 46 47 48 49 50
475
ASUS45 KBOU 152010
RWRCO

WEATHER ROUNDUP FOR COLORADO
NATIONAL WEATHER SERVICE DENVER/BOULDER CO
100 PM MST FRI DEC 15 2017

NOTE: "FAIR" INDICATES FEW OR NO CLOUDS BELOW 12000 FEET WITH NO
SIGNIFICANT WEATHER AND/OR OBSTRUCTIONS TO VISIBILITY.

COZ001>005-013-030-031-152100-
...NORTHWEST COLORADO...

CITY           SKY/WX    TMP DP  RH WIND       PRES   REMARKS
CRAIG          FAIR      35  13  40 NE10      30.20F WCI  27
HAYDEN         FAIR      36  14  40 SE3       30.21F
MEEKER         FAIR      44  12  27 MISG      30.19F
RABBIT EARS PA FAIR      28   1  31 W6        30.20F WCI  22
STEAMBOAT SPGS FAIR      32  16  51 CALM      30.20F
WALDEN         FAIR      34   7  32 S16G22    30.16F WCI  23
$$

COZ006>008-011-152100-
...WEST CENTRAL VALLEYS...

CITY           SKY/WX    TMP DP  RH WIND       PRES   REMARKS
GRAND JUNCTION FAIR      40  12  32 SE7       30.26F
MONTROSE       FAIR      41  11  29 NW3       30.27F
EAGLE          FAIR      29  10  45 CALM      30.27F
RIFLE          FAIR      38   9  30 CALM      30.26F
DELTA          FAIR      42  10  26 SW3       30.27F
NUCLA          FAIR      41   1  19 N3        30.31F
$$

COZ017>023-064>068-152100-
...SOUTHWEST COLORADO...

CITY           SKY/WX    TMP DP  RH WIND       PRES   REMARKS
DURANGO        FAIR      42  19  39 CALM      30.24F
CORTEZ         FAIR      45  -1  14 VRB3      30.24F
PAGOSA SPRINGS FAIR      40   2  20 S5        30.24F
TELLURIDE      FAIR      44 -11   9 W5        30.27F
WOLF CREEK PAS NOT AVBL
$$

COZ009-010-012-014-032>034-037-058>063-152100-
...CENTRAL COLORADO...

CITY           SKY/WX    TMP DP  RH WIND       PRES   REMARKS
ASPEN          FAIR      39   5  24 CALM      30.20F
BUENA VISTA    FAIR      42   6  22 SE10      30.16F
COPPER MTN     NOT AVBL
BERTHOUD PASS  FAIR      18   7  62 NW23G30   30.20F WCI   0
COTTONWOOD PAS FAIR      43  -2  15 E6        30.19F
GUNNISON       FAIR      33   4  29 CALM      30.27F
KREMMLING      FAIR      30  12  47 CALM      30.26F
LEADVILLE      FAIR      36  -7  15 NW7       30.20F
MONARCH PASS   FAIR      23   0  36 SW23G29   30.36F WCI   7
SALIDA         FAIR      49  -2  12 SW13G20   30.22F
SUNLIGHT       FAIR      32  -4  21 SW7       30.29F WCI  26
WILKERSON PASS FAIR      34   0  23 NW8G16    30.21F WCI  27
$$

COZ069>075-152100-
...SAN LUIS VALLEY/SANGRE DE CRISTO MOUNTAINS...

CITY           SKY/WX    TMP DP  RH WIND       PRES   REMARKS
ALAMOSA        FAIR      34  11  38 CALM      30.23F
DEL NORTE      FAIR      32  11  42 E5        30.24F WCI  27
LA VETA PASS   FAIR      30   5  34 SW29G38     N/A  WCI  15
SAGUACHE       FAIR      34  12  40 SE8       30.24F WCI  27
$$

COZ035-036-038>040-152100-
...NORTHERN COLORADO FRONT RANGE...

CITY           SKY/WX    TMP DP  RH WIND       PRES   REMARKS
DENVER INTL AP FAIR      61   5  10 W12       29.93F
DMNS CITY PARK NOT AVBL
AURORA         MOSUNNY   60   1   9 W12       29.95F
FRONT RANGE AP MOSUNNY   61   7  11 W14       29.95F
ERIE MUNI ARPT FAIR      63   2   9 W7        29.97F
BOULDER MUN AP FAIR      61  10  13 SW15      29.91F
CENTENNIAL     FAIR      58   9  14 W8        29.96F
BROOMFIELD     MOSUNNY   61   5  11 W21       29.95F
FORT COLLINS   FAIR      49  18  29 S8        29.92F
LONGMONT       FAIR      57  19  22 NE3       29.93F
$$

COZ041-046-047-076>085-087-088-152100-
...PIKES PEAK/PALMER DIVIDE AND SOUTHERN FOOTHILLS...

CITY           SKY/WX    TMP DP  RH WIND       PRES   REMARKS
COLO. SPRINGS  FAIR      55  -4   9 S7        30.02F
A. F. ACADEMY  FAIR      56  -2   9 S12       30.01F
SCHRIEVER AFB  FAIR      55   2  12 SW5       30.02F
CHEYENNE MTN   FAIR      51  10  19 SE6       29.98F
ELLICOTT         N/A    N/A N/A N/A W7        30.00F
FALCON         FAIR      56   0  10 W7        30.04F
FORT CARSON    FAIR      55   8  15 CALM      30.00F
LIMON          FAIR      58   8  13 W8        29.97F
MONUMENT HILL  FAIR      52  12  20 W6        30.04F
CANON CITY     FAIR      61   5  11 W18G26    29.99F
WALSENBURG     FAIR      55   7  14 W24G32    30.05F
TRINIDAD       FAIR      58   5  12 VRB3      30.03F
$$

COZ042>045-048>051-090-091-152100-
...NORTHEAST COLORADO...

CITY           SKY/WX    TMP DP  RH WIND       PRES   REMARKS
GREELEY ARPT   FAIR      50  17  27 CALM      29.92F
AKRON          FAIR      54  14  20 SW15      29.92F
BURLINGTON     FAIR      57   8  14 SW17      29.97F
WRAY           FAIR      63   3   9 W14       29.91F
YUMA           FAIR      59   5  11 SW13      29.91F
STERLING       FAIR      52  21  30 SW10      29.89F
HOLYOKE        FAIR      61  12  15 W17       29.90F
FORT MORGAN    FAIR      47  18  31 SW7       29.93F
$$

COZ086-089-092>099-152100-
...SOUTHEAST COLORADO...

CITY           SKY/WX    TMP DP  RH WIND       PRES   REMARKS
PUEBLO         FAIR      55  18  23 SE3       29.99F
LA JUNTA       FAIR      58  14  17 SW12      30.00F
LAMAR          FAIR      54  21  27 W9        29.99F
SPRINGFIELD      N/A     56   7  14 W7        30.02F
$$




USA.gov is the U.S. government's official web portal to all federal, state and local government web resources and services.